Hourly Weather Roundup
Issued by NWS Central Illinois

Home | Current Version | Previous Version | Text Only | Print | Product List | Glossary On
Versions: 1 2 3 4 5 6 7 8 9 10 11 12 13 14 15 16 17 18 19 20 21 22 23 24 25 26 27 28 29 30 31 32 33 34 35 36 37 38 39 40 41 42 43 44 45 46 47 48 49 50
000
NZUS43 KILX 300910
HWRILX

AREA WEATHER ROUNDUP
NATIONAL WEATHER SERVICE, LINCOLN IL
400 AM CDT MON MAR 30 2015


CITY           SKY/WX    TMP DP  RH WIND       PRES   REMARKS
BLOOMINGTON    CLEAR     38  31  76 W10       30.05S WCI  31
CHAMPAIGN      CLEAR     35  31  85 W7        30.04S WCI  29
DECATUR        CLEAR     43  31  62 NW9       30.06F
EFFINGHAM      CLEAR     39  31  73 W6        30.08F WCI  35
FLORA          CLEAR     44  35  72 NW7       30.07F
GALESBURG      CLEAR     36  30  77 W6        30.06S WCI  31
JACKSONVILLE   CLEAR     38  30  73 W5        30.10S WCI  35
LACON          CLEAR     35  28  73 CALM      30.04S
LAWRENCEVILLE  CLEAR     44  38  79 NW10      30.04F
LITCHFIELD     CLEAR     39  32  75 W8        30.10S WCI  34
$$


CITY           SKY/WX    TMP DP  RH WIND       PRES   REMARKS
LINCOLN        CLEAR     43  31  61 W3        30.07S
MACOMB         CLEAR     34  29  82 W9        30.10S WCI  26
MATTOON        CLEAR     38  32  79 W12       30.04F WCI  30
MT CARMEL AP   CLEAR     46  37  71 NW8       30.04F
OLNEY-NOBLE AP CLEAR     41  36  81 NW8       30.06F
PARIS          CLEAR     36  35  96 W9        30.04S WCI  29
PEORIA         CLEAR     42  29  59 W5        30.06S
PONTIAC        CLEAR     35  31  85 W6        30.03S WCI  30
RANTOUL        CLEAR     37  32  83 W8        30.02F WCI  30
ROBINSON       CLEAR     41  36  83 NW9       30.05F WCI  35
SPRINGFIELD    CLEAR     35  28  75 W6        30.09S WCI  30
TAYLORVILLE    CLEAR     36  32  87 W8        30.08F WCI  29
$$

...REGIONAL REPORTS...


CITY           SKY/WX    TMP DP  RH WIND       PRES   REMARKS
CHICAGO O`HARE FAIR      37  29  72 W10       29.96R WCI  30
KANKAKEE       CLEAR     33  30  91 W7        30.01S WCI  26
MOLINE         CLEAR     37  28  70 W7        30.04F WCI  32
MOUNT VERNON   CLEAR     46  37  71 CALM      30.09S
PITTSFIELD     CLEAR     39  34  81 W5        30.13R
QUINCY         CLEAR     42  30  62 W6        30.11S
ROCKFORD       CLEAR     37  27  67 W8        30.00S WCI  31
$$


CITY           SKY/WX    TMP DP  RH WIND       PRES   REMARKS
BURLINGTON     CLEAR     38  27  64 W6        30.08S WCI  33
CEDAR RAPIDS   CLEAR     34  26  72 W3        30.03F
DES MOINES     PTCLDY    37  24  59 SW6       30.10S WCI  32
KIRKSVILLE     PTCLDY    31  28  89 W5        30.14S WCI  26
OTTUMWA        CLEAR     32  23  69 SW6       30.08F WCI  26
ST LOUIS       CLEAR     43  36  76 W7        30.13R
$$


CITY           SKY/WX    TMP DP  RH WIND       PRES   REMARKS
TERRE HAUTE    CLEAR     40  37  89 W7        30.03F
EVANSVILLE     CLEAR     50  40  68 NW7       30.06S
INDIANAPOLIS   CLEAR     36  32  85 W8        29.98S WCI  30
LAFAYETTE      CLEAR     36  33  89 W5        30.00S WCI  32
MADISON        CLEAR     36  28  73 VRB6      29.95R WCI  31
MILWAUKEE      PTCLDY    37  30  75 W3        29.93S
$$




USA.gov is the U.S. government's official web portal to all federal, state and local government web resources and services.